sat.trackr.live / text

‹ back to catalog

STARLINK-36908

NORAD 67945 · 2026-037P

PAYLOAD ACTIVE UNKNOWN

§ Identity

Operator
Country
US
Launch date
2026-02-24
Launch site
AFETR
Launch vehicle
Mass (kg)
RCS (m²)

Purposes: comms

External: N2YO · Heavens-Above · Gunter

§ Orbital elements

Epoch: 2026-09-19T04:02:04.152768Z

Period
94.27 min
Inclination
43.0018°
Eccentricity
0.0002471
Mean motion
15.27589245 rev/d
Perigee alt
481.3 km
Apogee alt
484.7 km
Semi-major
6,861.2 km
B*
4.5721e-4
RAAN
177.7993°
Arg perigee
250.2746°
Mean anomaly
109.7840°
Rev number
3,293

§ Raw data

STARLINK-369081 67945U 26037P   26262.16810362  .00012344  00000+0  45721-3 0  99992 67945  43.0018 177.7993 0002471 250.2746 109.7840 15.27589245 32936

JSON: /api/v1/satellites/67945 · /tle

For live sub-satellite position, see the globe view (requires WebGL).

§ Visibility from observer

Set your observer location to see the next 7 days of passes ≥ 10°. The values pass through the URL so the page stays shareable.

No JS? Fill the form by hand. The geolocation button needs JavaScript.